FW4572 Weather Reports


time (UTC)temp
F
wind
direction
speed
knots
gust
knots
rain 1hr
in
rain 24hr
in
rain mn
in
humidity
%
barometer
mb
20260510230326 77 315 0.0 0.0 0.00 0.00 0.00 52 1017.4
20260510225327 78 315 0.0 0.0 0.00 0.00 0.00 50 1017.5
20260510223345 79 315 0.0 0.0 0.00 0.00 0.00 46 1017.5
20260510220427 82 315 0.0 0.0 0.00 0.00 0.00 42 1017.4
20260510215525 84 315 0.0 0.0 0.00 0.00 0.00 38 1017.3
20260510214525 86 315 0.0 0.0 0.00 0.00 0.00 37 1017.4
20260510213526 86 211 0.9 2.6 0.00 0.00 0.00 34 1017.4
20260510212528 86 180 0.0 0.0 0.00 0.00 0.00 37 1017.5
20260510211528 85 180 0.0 0.9 0.00 0.00 0.00 36 1017.6
20260510205625 84 180 1.7 2.6 0.00 0.00 0.00 35 1017.7
20260510203726 82 180 1.7 2.6 0.00 0.00 0.00 36 1017.9
20260510202741 84 180 4.3 6.1 0.00 0.00 0.00 35 1017.9
20260510201745 83 180 0.0 0.9 0.00 0.00 0.00 35 1017.9
20260510200826 83 180 0.0 0.0 0.00 0.00 0.00 36 1018.0
20260510194829 83 180 1.7 3.5 0.00 0.00 0.00 36 1018.2
20260510192827 84 202 0.0 0.9 0.00 0.00 0.00 35 1018.2
20260510191828 83 180 0.9 1.7 0.00 0.00 0.00 36 1018.3
20260510190825 83 180 0.9 2.6 0.00 0.00 0.00 37 1018.1
20260510185841 82 337 0.0 0.0 0.00 0.00 0.00 39 1018.3
20260510182925 83 296 0.9 1.7 0.00 0.00 0.00 39 1018.6
20260510180929 81 180 1.7 4.3 0.00 0.00 0.00 40 1018.7
20260510175926 83 180 2.6 4.3 0.00 0.00 0.00 40 1018.8
20260510174926 82 360 0.0 1.7 0.00 0.00 0.00 43 1018.9
20260510173926 82 180 3.5 4.3 0.00 0.00 0.00 43 1018.9
20260510173843 82 180 3.5 4.3 0.00 0.00 0.00 43 1019.1
20260510172826 79 180 0.0 0.9 0.00 0.00 0.00 41 1019.0
20260510171828 79 321 1.7 2.6 0.00 0.00 0.00 41 1018.9
20260510170825 80 180 2.6 4.3 0.00 0.00 0.00 44 1019.0
20260510165826 79 180 1.7 2.6 0.00 0.00 0.00 44 1019.1
20260510164825 80 180 3.5 6.1 0.00 0.00 0.00 48 1019.0
20260510163827 79 180 0.0 0.0 0.00 0.00 0.00 50 1019.1
20260510162826 78 180 1.7 3.5 0.00 0.00 0.00 50 1019.0
20260510161826 79 180 2.6 4.3 0.00 0.00 0.00 50 1019.0
20260510160826 80 337 0.0 0.0 0.00 0.00 0.00 53 1019.1
20260510155825 79 273 0.0 0.0 0.00 0.00 0.00 57 1019.0
20260510153926 77 180 3.5 4.3 0.00 0.00 0.00 63 1019.1
20260510153827 78 180 2.6 5.2 0.00 0.00 0.00 64 1019.1
20260510145944 76 225 0.9 2.6 0.00 0.00 0.00 69 1019.1
20260510144925 75 188 0.0 1.7 0.00 0.00 0.00 71 1019.2
20260510143943 75 312 0.0 0.0 0.00 0.00 0.00 73 1019.0
20260510142926 73 337 0.0 0.9 0.00 0.00 0.00 78 1019.0
20260510141927 72 204 2.6 6.1 0.00 0.00 0.00 80 1019.0
20260510140926 71 315 0.0 0.0 0.00 0.00 0.00 84 1018.9
20260510135925 69 217 2.6 4.3 0.00 0.00 0.00 86 1018.9
20260510135827 69 199 3.5 5.2 0.00 0.00 0.00 87 1018.9
20260510134826 69 205 5.2 6.1 0.00 0.00 0.00 88 1019.0
20260510133825 68 212 1.7 2.6 0.00 0.00 0.00 89 1018.9
20260510131827 66 176 1.7 4.3 0.00 0.00 0.00 92 1019.0
20260510130827 65 165 1.7 3.5 0.00 0.00 0.00 93 1018.9
20260510125825 64 296 0.0 3.5 0.00 0.00 0.00 94 1019.0
20260510124825 64 218 0.0 2.6 0.00 0.00 0.00 94 1018.9
20260510124727 64 236 0.0 2.6 0.00 0.00 0.00 95 1018.7
20260510122827 62 227 0.0 1.7 0.00 0.00 0.00 96 1018.7
20260510121925 60 202 0.0 0.0 0.00 0.00 0.00 95 1018.3
20260510121841 60 202 0.0 0.0 0.00 0.00 0.00 95 1018.4
20260510120926 60 202 0.0 0.0 0.00 0.00 0.00 94 1018.3
20260510115926 59 202 0.0 0.0 0.00 0.00 0.00 94 1018.3
20260510115025 59 202 0.0 0.0 0.00 0.00 0.00 95 1018.1
20260510114027 60 202 0.0 0.0 0.00 0.00 0.00 95 1017.9
20260510113027 60 202 0.0 0.0 0.00 0.00 0.00 95 1017.6
20260510112125 59 202 0.0 0.0 0.00 0.00 0.00 94 1017.7
20260510112026 59 202 0.0 0.0 0.00 0.00 0.00 94 1017.7
20260510111027 59 202 0.0 0.0 0.00 0.00 0.00 94 1017.5
20260510110026 59 202 0.0 0.0 0.00 0.00 0.00 93 1017.3
20260510105042 60 202 0.0 0.0 0.00 0.00 0.00 93 1017.2
20260510103124 61 202 0.0 0.0 0.00 0.00 0.00 93 1017.0
20260510102125 61 202 0.0 0.0 0.00 0.00 0.00 92 1017.0
20260510101025 61 202 0.0 0.0 0.00 0.00 0.00 92 1016.9
20260510100024 62 202 0.0 0.0 0.00 0.00 0.00 91 1016.7
20260510095025 62 29 0.0 0.9 0.00 0.00 0.00 92 1016.5
20260510092925 62 269 0.0 0.0 0.00 0.00 0.00 92 1016.5
20260510091925 62 337 0.0 0.0 0.00 0.00 0.00 92 1016.4
20260510090927 62 337 0.0 0.0 0.00 0.00 0.00 92 1016.5
20260510085926 62 315 0.0 0.9 0.00 0.00 0.00 92 1016.4
20260510084942 62 233 0.9 3.5 0.00 0.00 0.00 91 1016.1
20260510082944 63 235 1.7 4.3 0.00 0.00 0.00 90 1016.2
20260510081926 63 203 0.0 2.6 0.00 0.00 0.00 91 1016.4
20260510080927 63 215 2.6 4.3 0.00 0.00 0.00 91 1016.2
20260510075925 63 245 2.6 4.3 0.00 0.00 0.00 90 1016.0
20260510074925 63 228 0.9 1.7 0.00 0.00 0.00 90 1015.9
20260510073925 63 229 3.5 5.2 0.00 0.00 0.00 89 1015.7
20260510071925 63 205 3.5 6.1 0.00 0.00 0.00 90 1015.7
20260510070925 63 255 2.6 5.2 0.00 0.00 0.00 90 1015.7
20260510064827 63 232 2.6 7.8 0.00 0.00 0.00 90 1015.8
20260510063925 62 261 1.7 3.5 0.00 0.00 0.00 89 1015.7
20260510062926 62 226 1.7 3.5 0.00 0.00 0.00 90 1015.8
20260510062025 62 225 2.6 3.5 0.00 0.00 0.00 89 1015.7
20260510061028 62 236 2.6 4.3 0.00 0.00 0.00 88 1015.8
20260510060024 62 205 2.6 3.5 0.00 0.00 0.00 88 1015.7
20260510055027 62 245 2.6 5.2 0.00 0.00 0.00 87 1015.8
20260510054925 62 228 2.6 5.2 0.00 0.00 0.00 87 1015.8
20260510053926 63 228 2.6 3.5 0.00 0.00 0.00 85 1015.8
20260510052026 63 196 3.5 6.1 0.00 0.00 0.00 83 1015.8
20260510051024 63 173 0.9 3.5 0.00 0.00 0.00 81 1015.8
20260510050026 63 213 4.3 7.0 0.00 0.00 0.00 80 1015.8
20260510044126 64 215 0.0 2.6 0.00 0.00 0.00 76 1015.8
20260510043126 64 199 0.0 2.6 0.00 0.00 0.00 73 1015.8
20260510042126 64 149 0.0 0.0 0.00 0.00 0.00 71 1015.8
20260510041127 64 136 0.0 1.7 0.00 0.00 0.00 68 1015.8
20260510040127 64 112 0.0 0.0 0.00 0.00 0.00 67 1015.7
20260510035225 64 112 0.0 0.0 0.00 0.00 0.00 66 1015.7
20260510034227 64 180 0.0 0.0 0.00 0.00 0.00 64 1015.6
20260510033225 64 180 0.0 0.0 0.00 0.00 0.00 64 1015.8
20260510032325 64 180 0.0 0.0 0.00 0.00 0.00 65 1015.8
20260510030326 65 180 0.0 0.0 0.00 0.00 0.00 63 1015.7
20260510023326 64 180 0.0 0.0 0.00 0.00 0.00 62 1015.4
20260510022326 64 180 0.0 0.0 0.00 0.00 0.00 63 1015.1
20260510021326 64 180 0.0 0.0 0.00 0.00 0.00 63 1014.7
20260510020325 65 180 0.0 0.0 0.00 0.00 0.00 64 1014.7
20260510015326 67 180 0.0 0.0 0.00 0.00 0.00 60 1014.5
20260510012325 67 180 0.0 0.0 0.00 0.00 0.00 60 1014.1
20260510012242 67 180 0.0 0.0 0.00 0.00 0.00 60 1014.1
20260510010326 67 180 0.0 0.0 0.00 0.00 0.00 60 1013.9
20260510005325 69 180 0.0 0.0 0.00 0.00 0.00 58 1013.9
20260510004326 69 180 0.0 0.0 0.00 0.00 0.00 56 1013.5
20260510003326 70 180 0.0 0.0 0.00 0.00 0.00 55 1013.4
20260510002343 71 180 0.0 0.0 0.00 0.00 0.00 54 1013.4
20260510001426 73 180 0.0 0.0 0.00 0.00 0.00 53 1013.3
20260510001328 73 180 0.0 0.0 0.00 0.00 0.00 53 1013.3
20260510000326 74 180 0.0 0.0 0.00 0.00 0.00 50 1013.3
20260509235326 75 180 0.0 0.0 0.00 0.00 0.00 50 1013.2
20260509234327 76 180 0.0 0.0 0.00 0.00 0.00 48 1013.3
20260509232327 79 180 0.0 0.0 0.00 0.00 0.00 46 1013.2
20260509231325 80 180 0.0 0.0 0.00 0.00 0.00 44 1013.1